Year,Month,Day,Hour,Minute,Value (Times are PST for temperature in C)
2010,08,23,00,00,10.00
2010,08,23,00,01,9.90
2010,08,23,00,02,9.90
2010,08,23,00,03,9.90
2010,08,23,00,04,9.90
2010,08,23,00,05,9.90
2010,08,23,00,06,9.90
2010,08,23,00,07,9.90
2010,08,23,00,08,9.90
2010,08,23,00,09,9.80
2010,08,23,00,10,9.80
2010,08,23,00,11,9.80
2010,08,23,00,12,9.80
2010,08,23,00,13,9.80
2010,08,23,00,14,9.70
2010,08,23,00,15,9.70
2010,08,23,00,16,9.70
2010,08,23,00,17,9.70
2010,08,23,00,18,9.70
2010,08,23,00,19,9.70
2010,08,23,00,20,9.70
2010,08,23,00,21,9.70
2010,08,23,00,22,9.70
2010,08,23,00,23,9.60
2010,08,23,00,24,9.60
2010,08,23,00,25,9.60
2010,08,23,00,26,9.60
2010,08,23,00,27,9.60
2010,08,23,00,28,9.50
2010,08,23,00,29,9.50
2010,08,23,00,30,9.50
2010,08,23,00,31,9.50
2010,08,23,00,32,9.40
2010,08,23,00,33,9.40
2010,08,23,00,34,9.40
2010,08,23,00,35,9.30
2010,08,23,00,36,9.30
2010,08,23,00,37,9.20
2010,08,23,00,38,9.20
2010,08,23,00,39,9.20
2010,08,23,00,40,9.10
2010,08,23,00,41,9.10
2010,08,23,00,42,9.10
2010,08,23,00,43,9.00
2010,08,23,00,44,9.00
2010,08,23,00,45,9.00
2010,08,23,00,46,9.00
2010,08,23,00,47,9.00
2010,08,23,00,48,8.90
2010,08,23,00,49,8.90
2010,08,23,00,50,8.90
2010,08,23,00,51,8.90
2010,08,23,00,52,8.90
2010,08,23,00,53,8.90
2010,08,23,00,54,8.90
2010,08,23,00,55,8.80
2010,08,23,00,56,8.80
2010,08,23,00,57,8.80
2010,08,23,00,58,8.80
2010,08,23,00,59,8.80
2010,08,23,01,00,8.70
2010,08,23,01,01,8.70
2010,08,23,01,02,8.70
2010,08,23,01,03,8.70
2010,08,23,01,04,8.70
2010,08,23,01,05,8.70
2010,08,23,01,06,8.70
2010,08,23,01,07,8.70
2010,08,23,01,08,8.70
2010,08,23,01,09,8.60
2010,08,23,01,10,8.60
2010,08,23,01,11,8.60
2010,08,23,01,12,8.60
2010,08,23,01,13,8.60
2010,08,23,01,14,8.50
2010,08,23,01,15,8.50
2010,08,23,01,16,8.50
2010,08,23,01,17,8.50
2010,08,23,01,18,8.40
2010,08,23,01,19,8.40
2010,08,23,01,20,8.40
2010,08,23,01,21,8.40
2010,08,23,01,22,8.40
2010,08,23,01,23,8.30
2010,08,23,01,24,8.30
2010,08,23,01,25,8.30
2010,08,23,01,26,8.30
2010,08,23,01,27,8.30
2010,08,23,01,28,8.30
2010,08,23,01,29,8.20
2010,08,23,01,30,8.20
2010,08,23,01,31,8.20
2010,08,23,01,32,8.20
2010,08,23,01,33,8.20
2010,08,23,01,34,8.20
2010,08,23,01,35,8.20
2010,08,23,01,36,8.20
2010,08,23,01,37,8.20
2010,08,23,01,38,8.20
2010,08,23,01,39,8.20
2010,08,23,01,40,8.20
2010,08,23,01,41,8.20
2010,08,23,01,42,8.20
2010,08,23,01,43,8.20
2010,08,23,01,44,8.20
2010,08,23,01,45,8.20
2010,08,23,01,46,8.20
2010,08,23,01,47,8.20
2010,08,23,01,48,8.20
2010,08,23,01,49,8.20
2010,08,23,01,50,8.20
2010,08,23,01,51,8.20
2010,08,23,01,52,8.20
2010,08,23,01,53,8.20
2010,08,23,01,54,8.10
2010,08,23,01,55,8.10
2010,08,23,01,56,8.10
2010,08,23,01,57,8.10
2010,08,23,01,58,8.00
2010,08,23,01,59,8.00
2010,08,23,02,00,8.00
2010,08,23,02,01,8.00
2010,08,23,02,02,8.00
2010,08,23,02,03,7.90
2010,08,23,02,04,7.90
2010,08,23,02,05,7.90
2010,08,23,02,06,7.90
2010,08,23,02,07,7.90
2010,08,23,02,08,7.90
2010,08,23,02,09,7.90
2010,08,23,02,10,7.90
2010,08,23,02,11,7.90
2010,08,23,02,12,7.80
2010,08,23,02,13,7.80
2010,08,23,02,14,7.80
2010,08,23,02,15,7.80
2010,08,23,02,16,7.80
2010,08,23,02,17,7.80
2010,08,23,02,18,7.80
2010,08,23,02,19,7.80
2010,08,23,02,20,7.80
2010,08,23,02,21,7.80
2010,08,23,02,22,7.80
2010,08,23,02,23,7.80
2010,08,23,02,24,7.80
2010,08,23,02,25,7.80
2010,08,23,02,26,7.80
2010,08,23,02,27,7.80
2010,08,23,02,28,7.80
2010,08,23,02,29,7.80
2010,08,23,02,30,7.80
2010,08,23,02,31,7.80
2010,08,23,02,32,7.80
2010,08,23,02,33,7.80
2010,08,23,02,34,7.80
2010,08,23,02,35,7.70
2010,08,23,02,36,7.70
2010,08,23,02,37,7.70
2010,08,23,02,38,7.70
2010,08,23,02,39,7.70
2010,08,23,02,40,7.70
2010,08,23,02,41,7.70
2010,08,23,02,42,7.70
2010,08,23,02,43,7.60
2010,08,23,02,44,7.60
2010,08,23,02,45,7.60
2010,08,23,02,46,7.60
2010,08,23,02,47,7.60
2010,08,23,02,48,7.60
2010,08,23,02,49,7.50
2010,08,23,02,50,7.50
2010,08,23,02,51,7.50
2010,08,23,02,52,7.50
2010,08,23,02,53,7.50
2010,08,23,02,54,7.40
2010,08,23,02,55,7.40
2010,08,23,02,56,7.40
2010,08,23,02,57,7.40
2010,08,23,02,58,7.40
2010,08,23,02,59,7.30
2010,08,23,03,00,7.30
2010,08,23,03,01,7.30
2010,08,23,03,02,7.30
2010,08,23,03,03,7.30
2010,08,23,03,04,7.30
2010,08,23,03,05,7.30
2010,08,23,03,06,7.30
2010,08,23,03,07,7.30
2010,08,23,03,08,7.30
2010,08,23,03,09,7.30
2010,08,23,03,10,7.30
2010,08,23,03,11,7.30
2010,08,23,03,12,7.20
2010,08,23,03,13,7.20
2010,08,23,03,14,7.20
2010,08,23,03,15,7.20
2010,08,23,03,16,7.20
2010,08,23,03,17,7.20
2010,08,23,03,18,7.10
2010,08,23,03,19,7.10
2010,08,23,03,20,7.10
2010,08,23,03,21,7.10
2010,08,23,03,22,7.10
2010,08,23,03,23,7.10
2010,08,23,03,24,7.10
2010,08,23,03,25,7.10
2010,08,23,03,26,7.10
2010,08,23,03,27,7.00
2010,08,23,03,28,7.00
2010,08,23,03,29,7.00
2010,08,23,03,30,7.00
2010,08,23,03,31,7.00
2010,08,23,03,32,7.00
2010,08,23,03,33,7.00
2010,08,23,03,34,7.00
2010,08,23,03,35,7.00
2010,08,23,03,36,7.00
2010,08,23,03,37,7.00
2010,08,23,03,38,7.00
2010,08,23,03,39,7.00
2010,08,23,03,40,6.90
2010,08,23,03,41,6.90
2010,08,23,03,42,6.90
2010,08,23,03,43,6.90
2010,08,23,03,44,6.90
2010,08,23,03,45,6.90
2010,08,23,03,46,6.90
2010,08,23,03,47,6.80
2010,08,23,03,48,6.80
2010,08,23,03,49,6.80
2010,08,23,03,50,6.80
2010,08,23,03,51,6.80
2010,08,23,03,52,6.80
2010,08,23,03,53,6.80
2010,08,23,03,54,6.80
2010,08,23,03,55,6.80
2010,08,23,03,56,6.80
2010,08,23,03,57,6.80
2010,08,23,03,58,6.80
2010,08,23,03,59,6.80
2010,08,23,04,00,6.80
2010,08,23,04,01,6.80
2010,08,23,04,02,6.80
2010,08,23,04,03,6.80
2010,08,23,04,04,6.80
2010,08,23,04,05,6.80
2010,08,23,04,06,6.80
2010,08,23,04,07,6.80
2010,08,23,04,08,6.80
2010,08,23,04,09,6.80
2010,08,23,04,10,6.80
2010,08,23,04,11,6.80
2010,08,23,04,12,6.80
2010,08,23,04,13,6.70
2010,08,23,04,14,6.70
2010,08,23,04,15,6.70
2010,08,23,04,16,6.70
2010,08,23,04,17,6.70
2010,08,23,04,18,6.70
2010,08,23,04,19,6.70
2010,08,23,04,20,6.70
2010,08,23,04,21,6.70
2010,08,23,04,22,6.70
2010,08,23,04,23,6.70
2010,08,23,04,24,6.70
2010,08,23,04,25,6.70
2010,08,23,04,26,6.60
2010,08,23,04,27,6.60
2010,08,23,04,28,6.60
2010,08,23,04,29,6.60
2010,08,23,04,30,6.60
2010,08,23,04,31,6.60
2010,08,23,04,32,6.60
2010,08,23,04,33,6.60
2010,08,23,04,34,6.60
2010,08,23,04,35,6.60
2010,08,23,04,36,6.60
2010,08,23,04,37,6.60
2010,08,23,04,38,6.60
2010,08,23,04,39,6.60
2010,08,23,04,40,6.60
2010,08,23,04,41,6.60
2010,08,23,04,42,6.60
2010,08,23,04,43,6.60
2010,08,23,04,44,6.60
2010,08,23,04,45,6.60
2010,08,23,04,46,6.60
2010,08,23,04,47,6.60
2010,08,23,04,48,6.60
2010,08,23,04,49,6.60
2010,08,23,04,50,6.60
2010,08,23,04,51,6.60
2010,08,23,04,52,6.60
2010,08,23,04,53,6.60
2010,08,23,04,54,6.60
2010,08,23,04,55,6.60
2010,08,23,04,56,6.60
2010,08,23,04,57,6.60
2010,08,23,04,58,6.60
2010,08,23,04,59,6.50
2010,08,23,05,00,6.40
2010,08,23,05,01,6.40
2010,08,23,05,02,6.40
2010,08,23,05,03,6.40
2010,08,23,05,04,6.40
2010,08,23,05,05,6.40
2010,08,23,05,06,6.40
2010,08,23,05,07,6.40
2010,08,23,05,08,6.40
2010,08,23,05,09,6.40
2010,08,23,05,10,6.40
2010,08,23,05,11,6.40
2010,08,23,05,12,6.40
2010,08,23,05,13,6.40
2010,08,23,05,14,6.40
2010,08,23,05,15,6.40
2010,08,23,05,16,6.40
2010,08,23,05,17,6.40
2010,08,23,05,18,6.40
2010,08,23,05,19,6.40
2010,08,23,05,20,6.40
2010,08,23,05,21,6.30
2010,08,23,05,22,6.30
2010,08,23,05,23,6.30
2010,08,23,05,24,6.30
2010,08,23,05,25,6.30
2010,08,23,05,26,6.30
2010,08,23,05,27,6.30
2010,08,23,05,28,6.30
2010,08,23,05,29,6.30
2010,08,23,05,30,6.30
2010,08,23,05,31,6.30
2010,08,23,05,32,6.30
2010,08,23,05,33,6.30
2010,08,23,05,34,6.30
2010,08,23,05,35,6.30
2010,08,23,05,36,6.30
2010,08,23,05,37,6.30
2010,08,23,05,38,6.30
2010,08,23,05,39,6.30
2010,08,23,05,40,6.30
2010,08,23,05,41,6.30
2010,08,23,05,42,6.30
2010,08,23,05,43,6.30
2010,08,23,05,44,6.30
2010,08,23,05,45,6.30
2010,08,23,05,46,6.20
2010,08,23,05,47,6.20
2010,08,23,05,48,6.20
2010,08,23,05,49,6.20
2010,08,23,05,50,6.20
2010,08,23,05,51,6.20
2010,08,23,05,52,6.20
2010,08,23,05,53,6.20
2010,08,23,05,54,6.20
2010,08,23,05,55,6.20
2010,08,23,05,56,6.20
2010,08,23,05,57,6.20
2010,08,23,05,58,6.20
2010,08,23,05,59,6.20
2010,08,23,06,00,6.20
2010,08,23,06,01,6.20
2010,08,23,06,02,6.20
2010,08,23,06,03,6.20
2010,08,23,06,04,6.20
2010,08,23,06,05,6.20
2010,08,23,06,06,6.20
2010,08,23,06,07,6.20
2010,08,23,06,08,6.20
2010,08,23,06,09,6.20
2010,08,23,06,10,6.20
2010,08,23,06,11,6.20
2010,08,23,06,12,6.20
2010,08,23,06,13,6.20
2010,08,23,06,14,6.20
2010,08,23,06,15,6.20
2010,08,23,06,16,6.20
2010,08,23,06,17,6.20
2010,08,23,06,18,6.20
2010,08,23,06,19,6.20
2010,08,23,06,20,6.20
2010,08,23,06,21,6.20
2010,08,23,06,22,6.20
2010,08,23,06,23,6.20
2010,08,23,06,24,6.20
2010,08,23,06,25,6.20
2010,08,23,06,26,6.30
2010,08,23,06,27,6.30
2010,08,23,06,28,6.30
2010,08,23,06,29,6.30
2010,08,23,06,30,6.30
2010,08,23,06,31,6.30
2010,08,23,06,32,6.30
2010,08,23,06,33,6.30
2010,08,23,06,34,6.40
2010,08,23,06,35,6.40
2010,08,23,06,36,6.40
2010,08,23,06,37,6.40
2010,08,23,06,38,6.40
2010,08,23,06,39,6.40
2010,08,23,06,40,6.40
2010,08,23,06,41,6.40
2010,08,23,06,42,6.40
2010,08,23,06,43,6.40
2010,08,23,06,44,6.60
2010,08,23,06,45,6.60
2010,08,23,06,46,6.60
2010,08,23,06,47,6.60
2010,08,23,06,48,6.60
2010,08,23,06,49,6.60
2010,08,23,06,50,6.60
2010,08,23,06,51,6.70
2010,08,23,06,52,6.70
2010,08,23,06,53,6.70
2010,08,23,06,54,6.80
2010,08,23,06,55,6.80
2010,08,23,06,56,6.80
2010,08,23,06,57,6.80
2010,08,23,06,58,6.80
2010,08,23,06,59,6.90
2010,08,23,07,00,6.90
2010,08,23,07,01,6.90
2010,08,23,07,02,7.00
2010,08,23,07,03,7.00
2010,08,23,07,04,7.10
2010,08,23,07,05,7.20
2010,08,23,07,06,7.20
2010,08,23,07,07,7.20
2010,08,23,07,08,7.30
2010,08,23,07,09,7.30
2010,08,23,07,10,7.30
2010,08,23,07,11,7.30
2010,08,23,07,12,7.30
2010,08,23,07,13,7.30
2010,08,23,07,14,7.30
2010,08,23,07,15,7.30
2010,08,23,07,16,7.30
2010,08,23,07,17,7.30
2010,08,23,07,18,7.30
2010,08,23,07,19,7.30
2010,08,23,07,20,7.30
2010,08,23,07,21,7.40
2010,08,23,07,22,7.40
2010,08,23,07,23,7.50
2010,08,23,07,24,7.60
2010,08,23,07,25,7.60
2010,08,23,07,26,7.70
2010,08,23,07,27,7.80
2010,08,23,07,28,7.80
2010,08,23,07,29,7.90
2010,08,23,07,30,7.90
2010,08,23,07,31,8.00
2010,08,23,07,32,8.00
2010,08,23,07,33,8.00
2010,08,23,07,34,8.00
2010,08,23,07,35,8.10
2010,08,23,07,36,8.20
2010,08,23,07,37,8.20
2010,08,23,07,38,8.20
2010,08,23,07,39,8.20
2010,08,23,07,40,8.30
2010,08,23,07,41,8.30
2010,08,23,07,42,8.40
2010,08,23,07,43,8.50
2010,08,23,07,44,8.60
2010,08,23,07,45,8.70
2010,08,23,07,46,8.80
2010,08,23,07,47,8.90
2010,08,23,07,48,9.00
2010,08,23,07,49,9.00
2010,08,23,07,50,9.10
2010,08,23,07,51,9.20
2010,08,23,07,52,9.20
2010,08,23,07,53,9.30
2010,08,23,07,54,9.30
2010,08,23,07,55,9.40
2010,08,23,07,56,9.50
2010,08,23,07,57,9.60
2010,08,23,07,58,9.70
2010,08,23,07,59,9.70
2010,08,23,08,00,9.70
2010,08,23,08,01,9.80
2010,08,23,08,02,9.80
2010,08,23,08,03,9.90
2010,08,23,08,04,9.90
2010,08,23,08,05,9.90
2010,08,23,08,06,9.90
2010,08,23,08,07,9.90
2010,08,23,08,08,9.90
2010,08,23,08,09,10.00
2010,08,23,08,10,10.10
2010,08,23,08,11,10.10
2010,08,23,08,12,10.20
2010,08,23,08,13,10.30
2010,08,23,08,14,10.40
2010,08,23,08,15,10.60
2010,08,23,08,16,10.60
2010,08,23,08,17,10.60
2010,08,23,08,18,10.60
2010,08,23,08,19,10.60
2010,08,23,08,20,10.60
2010,08,23,08,21,10.60
2010,08,23,08,22,10.60
2010,08,23,08,23,10.60
2010,08,23,08,24,10.60
2010,08,23,08,25,10.60
2010,08,23,08,26,10.70
2010,08,23,08,27,10.70
2010,08,23,08,28,10.80
2010,08,23,08,29,10.80
2010,08,23,08,30,10.90
2010,08,23,08,31,10.90
2010,08,23,08,32,10.90
2010,08,23,08,33,10.90
2010,08,23,08,34,11.10
2010,08,23,08,35,11.10
2010,08,23,08,36,11.20
2010,08,23,08,37,11.20
2010,08,23,08,38,11.30
2010,08,23,08,39,11.30
2010,08,23,08,40,11.40
2010,08,23,08,41,11.50
2010,08,23,08,42,11.60
2010,08,23,08,43,11.60
2010,08,23,08,44,11.80
2010,08,23,08,45,11.80
2010,08,23,08,46,12.00
2010,08,23,08,47,12.10
2010,08,23,08,48,12.10
2010,08,23,08,49,12.20
2010,08,23,08,50,12.30
2010,08,23,08,51,12.40
2010,08,23,08,52,12.50
2010,08,23,08,53,12.60
2010,08,23,08,54,12.70
2010,08,23,08,55,12.80
2010,08,23,08,56,12.90
2010,08,23,08,57,13.00
2010,08,23,08,58,13.10
2010,08,23,08,59,13.10
2010,08,23,09,00,13.10
2010,08,23,09,01,13.20
2010,08,23,09,02,13.20
2010,08,23,09,03,13.20
2010,08,23,09,04,13.20
2010,08,23,09,05,13.30
2010,08,23,09,06,13.20
2010,08,23,09,07,13.10
2010,08,23,09,08,13.00
2010,08,23,09,09,12.90
2010,08,23,09,10,12.80
2010,08,23,09,11,12.70
2010,08,23,09,12,12.60
2010,08,23,09,13,12.50
2010,08,23,09,14,12.50
2010,08,23,09,15,12.50
2010,08,23,09,16,12.50
2010,08,23,09,17,12.60
2010,08,23,09,18,12.70
2010,08,23,09,19,12.70
2010,08,23,09,20,12.80
2010,08,23,09,21,12.80
2010,08,23,09,22,12.90
2010,08,23,09,23,13.00
2010,08,23,09,24,13.10
2010,08,23,09,25,13.10
2010,08,23,09,26,13.20
2010,08,23,09,27,13.30
2010,08,23,09,28,13.30
2010,08,23,09,29,13.30
2010,08,23,09,30,13.30
2010,08,23,09,31,13.30
2010,08,23,09,32,13.30
2010,08,23,09,33,13.30
2010,08,23,09,34,13.20
2010,08,23,09,35,13.20
2010,08,23,09,36,13.10
2010,08,23,09,37,13.10
2010,08,23,09,38,13.10
2010,08,23,09,39,13.10
2010,08,23,09,40,13.10
2010,08,23,09,41,13.20
2010,08,23,09,42,13.30
2010,08,23,09,43,13.40
2010,08,23,09,44,13.50
2010,08,23,09,45,13.50
2010,08,23,09,46,13.50
2010,08,23,09,47,13.40
2010,08,23,09,48,13.30
2010,08,23,09,49,13.40
2010,08,23,09,50,13.40
2010,08,23,09,51,13.30
2010,08,23,09,52,13.30
2010,08,23,09,53,13.20
2010,08,23,09,54,13.10
2010,08,23,09,55,13.00
2010,08,23,09,56,13.00
2010,08,23,09,57,12.90
2010,08,23,09,58,12.90
2010,08,23,09,59,12.90
2010,08,23,10,00,12.90
2010,08,23,10,01,12.80
2010,08,23,10,02,12.90
2010,08,23,10,03,12.90
2010,08,23,10,04,13.00
2010,08,23,10,05,13.00
2010,08,23,10,06,13.10
2010,08,23,10,07,13.10
2010,08,23,10,08,13.10
2010,08,23,10,09,13.20
2010,08,23,10,10,13.20
2010,08,23,10,11,13.20
2010,08,23,10,12,13.10
2010,08,23,10,13,13.10
2010,08,23,10,14,13.20
2010,08,23,10,15,13.10
2010,08,23,10,16,13.10
2010,08,23,10,17,13.10
2010,08,23,10,18,13.00
2010,08,23,10,19,12.90
2010,08,23,10,20,12.90
2010,08,23,10,21,12.80
2010,08,23,10,22,12.80
2010,08,23,10,23,12.80
2010,08,23,10,24,12.80
2010,08,23,10,25,12.80
2010,08,23,10,26,12.80
2010,08,23,10,27,12.80
2010,08,23,10,28,12.90
2010,08,23,10,29,12.90
2010,08,23,10,30,13.00
2010,08,23,10,31,13.00
2010,08,23,10,32,13.10
2010,08,23,10,33,13.10
2010,08,23,10,34,13.20
2010,08,23,10,35,13.30
2010,08,23,10,36,13.30
2010,08,23,10,37,13.30
2010,08,23,10,38,13.30
2010,08,23,10,39,13.40
2010,08,23,10,40,13.40
2010,08,23,10,41,13.30
2010,08,23,10,42,13.30
2010,08,23,10,43,13.30
2010,08,23,10,44,13.50
2010,08,23,10,45,13.50
2010,08,23,10,46,13.60
2010,08,23,10,47,13.50
2010,08,23,10,48,13.50
2010,08,23,10,49,13.50
2010,08,23,10,50,13.60
2010,08,23,10,51,13.70
2010,08,23,10,52,13.70
2010,08,23,10,53,13.70
2010,08,23,10,54,13.70
2010,08,23,10,55,13.70
2010,08,23,10,56,13.90
2010,08,23,10,57,14.00
2010,08,23,10,58,14.10
2010,08,23,10,59,14.20
2010,08,23,11,00,14.30
2010,08,23,11,01,14.30
2010,08,23,11,02,14.30
2010,08,23,11,03,14.20
2010,08,23,11,04,14.10
2010,08,23,11,05,14.10
2010,08,23,11,06,14.10
2010,08,23,11,07,14.20
2010,08,23,11,08,14.10
2010,08,23,11,09,14.10
2010,08,23,11,10,14.10
2010,08,23,11,11,14.10
2010,08,23,11,12,14.10
2010,08,23,11,13,14.10
2010,08,23,11,14,14.10
2010,08,23,11,15,14.10
2010,08,23,11,16,14.20
2010,08,23,11,17,14.40
2010,08,23,11,18,14.40
2010,08,23,11,19,14.40
2010,08,23,11,20,14.50
2010,08,23,11,21,14.60
2010,08,23,11,22,14.60
2010,08,23,11,23,14.60
2010,08,23,11,24,14.60
2010,08,23,11,25,14.60
2010,08,23,11,26,14.60
2010,08,23,11,27,14.60
2010,08,23,11,28,14.60
2010,08,23,11,29,14.50
2010,08,23,11,30,14.50
2010,08,23,11,31,14.50
2010,08,23,11,32,14.50
2010,08,23,11,33,14.50
2010,08,23,11,34,14.60
2010,08,23,11,35,14.60
2010,08,23,11,36,14.60
2010,08,23,11,37,14.60
2010,08,23,11,38,14.50
2010,08,23,11,39,14.40
2010,08,23,11,40,14.50
2010,08,23,11,41,14.50
2010,08,23,11,42,14.50
2010,08,23,11,43,14.60
2010,08,23,11,44,14.60
2010,08,23,11,45,14.60
2010,08,23,11,46,14.60
2010,08,23,11,47,14.70
2010,08,23,11,48,14.80
2010,08,23,11,49,14.90
2010,08,23,11,50,14.90
2010,08,23,11,51,15.00
2010,08,23,11,52,15.00
2010,08,23,11,53,15.00
2010,08,23,11,54,15.00
2010,08,23,11,55,14.90
2010,08,23,11,56,14.80
2010,08,23,11,57,14.80
2010,08,23,11,58,14.90
2010,08,23,11,59,15.00
2010,08,23,12,00,15.10
2010,08,23,12,01,15.10
2010,08,23,12,02,15.10
2010,08,23,12,03,15.20
2010,08,23,12,04,15.30
2010,08,23,12,05,15.30
2010,08,23,12,06,15.40
2010,08,23,12,07,15.30
2010,08,23,12,08,15.30
2010,08,23,12,09,15.30
2010,08,23,12,10,15.30
2010,08,23,12,11,15.40
2010,08,23,12,12,15.50
2010,08,23,12,13,15.60
2010,08,23,12,14,15.70
2010,08,23,12,15,15.80
2010,08,23,12,16,15.90
2010,08,23,12,17,15.90
2010,08,23,12,18,16.00
2010,08,23,12,19,16.10
2010,08,23,12,20,16.10
2010,08,23,12,21,16.10
2010,08,23,12,22,16.00
2010,08,23,12,23,15.80
2010,08,23,12,24,15.80
2010,08,23,12,25,15.80
2010,08,23,12,26,15.80
2010,08,23,12,27,15.80
2010,08,23,12,28,15.80
2010,08,23,12,29,15.80
2010,08,23,12,30,15.70
2010,08,23,12,31,15.60
2010,08,23,12,32,15.50
2010,08,23,12,33,15.50
2010,08,23,12,34,15.50
2010,08,23,12,35,15.50
2010,08,23,12,36,15.60
2010,08,23,12,37,15.60
2010,08,23,12,38,15.60
2010,08,23,12,39,15.70
2010,08,23,12,40,15.80
2010,08,23,12,41,15.90
2010,08,23,12,42,15.90
2010,08,23,12,43,16.10
2010,08,23,12,44,16.20
2010,08,23,12,45,16.30
2010,08,23,12,46,16.30
2010,08,23,12,47,16.30
2010,08,23,12,48,16.30
2010,08,23,12,49,16.30
2010,08,23,12,50,16.20
2010,08,23,12,51,16.10
2010,08,23,12,52,16.10
2010,08,23,12,53,16.20
2010,08,23,12,54,16.20
2010,08,23,12,55,16.20
2010,08,23,12,56,16.10
2010,08,23,12,57,16.10
2010,08,23,12,58,15.90
2010,08,23,12,59,15.90
2010,08,23,13,00,15.90
2010,08,23,13,01,15.90
2010,08,23,13,02,16.00
2010,08,23,13,03,16.10
2010,08,23,13,04,16.10
2010,08,23,13,05,16.10
2010,08,23,13,06,16.20
2010,08,23,13,07,16.30
2010,08,23,13,08,16.40
2010,08,23,13,09,16.40
2010,08,23,13,10,16.40
2010,08,23,13,11,16.40
2010,08,23,13,12,16.40
2010,08,23,13,13,16.40
2010,08,23,13,14,16.40
2010,08,23,13,15,16.30
2010,08,23,13,16,16.30
2010,08,23,13,17,16.30
2010,08,23,13,18,16.40
2010,08,23,13,19,16.40
2010,08,23,13,20,16.30
2010,08,23,13,21,16.30
2010,08,23,13,22,16.30
2010,08,23,13,23,16.30
2010,08,23,13,24,16.30
2010,08,23,13,25,16.30
2010,08,23,13,26,16.30
2010,08,23,13,27,16.40
2010,08,23,13,28,16.60
2010,08,23,13,29,16.60
2010,08,23,13,30,16.70
2010,08,23,13,31,16.70
2010,08,23,13,32,16.80
2010,08,23,13,33,16.90
2010,08,23,13,34,16.90
2010,08,23,13,35,16.90
2010,08,23,13,36,16.80
2010,08,23,13,37,16.80
2010,08,23,13,38,16.90
2010,08,23,13,39,17.00
2010,08,23,13,40,17.00
2010,08,23,13,41,16.90
2010,08,23,13,42,16.80
2010,08,23,13,43,16.90
2010,08,23,13,44,16.90
2010,08,23,13,45,16.90
2010,08,23,13,46,16.80
2010,08,23,13,47,16.70
2010,08,23,13,48,16.60
2010,08,23,13,49,16.60
2010,08,23,13,50,16.60
2010,08,23,13,51,16.60
2010,08,23,13,52,16.60
2010,08,23,13,53,16.70
2010,08,23,13,54,16.70
2010,08,23,13,55,16.70
2010,08,23,13,56,16.70
2010,08,23,13,57,16.80
2010,08,23,13,58,16.90
2010,08,23,13,59,16.90
2010,08,23,14,00,16.90
2010,08,23,14,01,16.90
2010,08,23,14,02,16.70
2010,08,23,14,03,16.70
2010,08,23,14,04,16.70
2010,08,23,14,05,16.70
2010,08,23,14,06,16.80
2010,08,23,14,07,16.80
2010,08,23,14,08,16.70
2010,08,23,14,09,16.80
2010,08,23,14,10,16.80
2010,08,23,14,11,16.90
2010,08,23,14,12,16.90
2010,08,23,14,13,17.00
2010,08,23,14,14,17.10
2010,08,23,14,15,17.10
2010,08,23,14,16,17.20
2010,08,23,14,17,17.30
2010,08,23,14,18,17.40
2010,08,23,14,19,17.40
2010,08,23,14,20,17.30
2010,08,23,14,21,17.40
2010,08,23,14,22,17.30
2010,08,23,14,23,17.30
2010,08,23,14,24,17.30
2010,08,23,14,25,17.20
2010,08,23,14,26,17.10
2010,08,23,14,27,17.00
2010,08,23,14,28,17.00
2010,08,23,14,29,17.00
2010,08,23,14,30,17.00
2010,08,23,14,31,16.90
2010,08,23,14,32,16.80
2010,08,23,14,33,16.80
2010,08,23,14,34,16.70
2010,08,23,14,35,16.70
2010,08,23,14,36,16.70
2010,08,23,14,37,16.70
2010,08,23,14,38,16.70
2010,08,23,14,39,16.90
2010,08,23,14,40,16.90
2010,08,23,14,41,16.90
2010,08,23,14,42,16.90
2010,08,23,14,43,16.90
2010,08,23,14,44,16.90
2010,08,23,14,45,17.00
2010,08,23,14,46,17.20
2010,08,23,14,47,17.40
2010,08,23,14,48,17.40
2010,08,23,14,49,17.40
2010,08,23,14,50,17.40
2010,08,23,14,51,17.50
2010,08,23,14,52,17.60
2010,08,23,14,53,17.60
2010,08,23,14,54,17.70
2010,08,23,14,55,17.60
2010,08,23,14,56,17.60
2010,08,23,14,57,17.60
2010,08,23,14,58,17.60
2010,08,23,14,59,17.50
2010,08,23,15,00,17.50
2010,08,23,15,01,17.40
2010,08,23,15,02,17.40
2010,08,23,15,03,17.40
2010,08,23,15,04,17.50
2010,08,23,15,05,17.50
2010,08,23,15,06,17.50
2010,08,23,15,07,17.70
2010,08,23,15,08,17.70
2010,08,23,15,09,17.70
2010,08,23,15,10,17.70
2010,08,23,15,11,17.70
2010,08,23,15,12,17.80
2010,08,23,15,13,17.90
2010,08,23,15,14,18.00
2010,08,23,15,15,18.10
2010,08,23,15,16,18.10
2010,08,23,15,17,17.90
2010,08,23,15,18,17.90
2010,08,23,15,19,17.90
2010,08,23,15,20,18.00
2010,08,23,15,21,18.10
2010,08,23,15,22,18.20
2010,08,23,15,23,18.20
2010,08,23,15,24,18.20
2010,08,23,15,25,18.20
2010,08,23,15,26,18.30
2010,08,23,15,27,18.40
2010,08,23,15,28,18.40
2010,08,23,15,29,18.30
2010,08,23,15,30,18.40
2010,08,23,15,31,18.40
2010,08,23,15,32,18.30
2010,08,23,15,33,18.30
2010,08,23,15,34,18.30
2010,08,23,15,35,18.20
2010,08,23,15,36,18.30
2010,08,23,15,37,18.20
2010,08,23,15,38,18.20
2010,08,23,15,39,18.20
2010,08,23,15,40,18.20
2010,08,23,15,41,18.20
2010,08,23,15,42,18.20
2010,08,23,15,43,18.10
2010,08,23,15,44,18.10
2010,08,23,15,45,18.20
2010,08,23,15,46,18.20
2010,08,23,15,47,18.40
2010,08,23,15,48,18.50
2010,08,23,15,49,18.50
2010,08,23,15,50,18.50
2010,08,23,15,51,18.50
2010,08,23,15,52,18.40
2010,08,23,15,53,18.50
2010,08,23,15,54,18.50
2010,08,23,15,55,18.50
2010,08,23,15,56,18.60
2010,08,23,15,57,18.60
2010,08,23,15,58,18.70
2010,08,23,15,59,18.60
2010,08,23,16,00,18.50
2010,08,23,16,01,18.50
2010,08,23,16,02,18.50
2010,08,23,16,03,18.40
2010,08,23,16,04,18.30
2010,08,23,16,05,18.20
2010,08,23,16,06,18.10
2010,08,23,16,07,17.90
2010,08,23,16,08,17.80
2010,08,23,16,09,17.70
2010,08,23,16,10,17.60
2010,08,23,16,11,17.60
2010,08,23,16,12,17.70
2010,08,23,16,13,17.70
2010,08,23,16,14,17.80
2010,08,23,16,15,17.80
2010,08,23,16,16,17.80
2010,08,23,16,17,17.80
2010,08,23,16,18,17.80
2010,08,23,16,19,17.80
2010,08,23,16,20,17.70
2010,08,23,16,21,17.80
2010,08,23,16,22,17.80
2010,08,23,16,23,17.90
2010,08,23,16,24,17.90
2010,08,23,16,25,17.90
2010,08,23,16,26,18.00
2010,08,23,16,27,18.10
2010,08,23,16,28,18.20
2010,08,23,16,29,18.10
2010,08,23,16,30,18.10
2010,08,23,16,31,17.90
2010,08,23,16,32,17.80
2010,08,23,16,33,17.80
2010,08,23,16,34,17.90
2010,08,23,16,35,18.00
2010,08,23,16,36,18.10
2010,08,23,16,37,18.20
2010,08,23,16,38,18.20
2010,08,23,16,39,18.20
2010,08,23,16,40,18.20
2010,08,23,16,41,18.20
2010,08,23,16,42,18.30
2010,08,23,16,43,18.30
2010,08,23,16,44,18.30
2010,08,23,16,45,18.30
2010,08,23,16,46,18.20
2010,08,23,16,47,18.20
2010,08,23,16,48,18.20
2010,08,23,16,49,18.30
2010,08,23,16,50,18.30
2010,08,23,16,51,18.30
2010,08,23,16,52,18.20
2010,08,23,16,53,18.20
2010,08,23,16,54,18.10
2010,08,23,16,55,18.10
2010,08,23,16,56,18.00
2010,08,23,16,57,17.90
2010,08,23,16,58,17.90
2010,08,23,16,59,17.90
2010,08,23,17,00,17.90
2010,08,23,17,01,17.90
2010,08,23,17,02,18.00
2010,08,23,17,03,18.10
2010,08,23,17,04,18.10
2010,08,23,17,05,18.20
2010,08,23,17,06,18.20
2010,08,23,17,07,18.20
2010,08,23,17,08,18.20
2010,08,23,17,09,18.10
2010,08,23,17,10,18.10
2010,08,23,17,11,18.10
2010,08,23,17,12,18.10
2010,08,23,17,13,18.10
2010,08,23,17,14,18.20
2010,08,23,17,15,18.20
2010,08,23,17,16,18.10
2010,08,23,17,17,18.10
2010,08,23,17,18,18.00
2010,08,23,17,19,17.90
2010,08,23,17,20,17.80
2010,08,23,17,21,17.70
2010,08,23,17,22,17.50
2010,08,23,17,23,17.50
2010,08,23,17,24,17.40
2010,08,23,17,25,17.50
2010,08,23,17,26,17.60
2010,08,23,17,27,17.70
2010,08,23,17,28,17.70
2010,08,23,17,29,17.70
2010,08,23,17,30,17.70
2010,08,23,17,31,17.70
2010,08,23,17,32,17.60
2010,08,23,17,33,17.50
2010,08,23,17,34,17.50
2010,08,23,17,35,17.50
2010,08,23,17,36,17.40
2010,08,23,17,37,17.30
2010,08,23,17,38,17.30
2010,08,23,17,39,17.10
2010,08,23,17,40,17.00